Home   Weather   Peshawar   Past weeks

Flag for Pakistan Past Weather in Peshawar, Pakistan — Yesterday and Last 2 Weeks

Now
59 °F

Thundershowers. Passing clouds.


Feels Like: 57 °F
Forecast: 51 / 72 °F
Wind: 9 mph from Southeast

Location: Peshawar Airport

Current Time: Mar 2, 2017 at 1:19:05 am

Latest Report: Mar 2, 2017 at 12:30 am


Visibility: 2 mi

Pressure: 29.98 "Hg

Humidity: 48%

Dew Point: 39 °F

Location of PeshawarLocation

Past Weather in Peshawar — Graph

°F

Peshawar Temperature Yesterday

Maximum temperature yesterday: 72 °F (at 2:00 pm)
Minimum temperature yesterday: 55 °F (at 6:00 am)
Average temperature yesterday: 63 °F

High & Low Weather Summary for the Past Weeks

 TemperatureHumidityPressure
High79 °F (Feb 25, 3:30 pm)88% (Feb 20, 6:00 am)30.24 "Hg (Feb 20, 6:00 am)
Low48 °F (Feb 21, 6:00 am)19% (Feb 26, 1:59 pm)29.71 "Hg (Feb 20, 6:00 pm)
Average63 °F45%30.02 "Hg
* Reported Feb 15 12:00 am — Mar 2 12:00 am, Peshawar, Weather by CustomWeather, © 2017

Note: Actual official high and low records may vary slightly from our data, if they occured in-between our weather recording intervals... More about our weather records

Advertising

Peshawar Weather History for the Previous 24 Hours

Scroll right to see more
 ConditionsComfort  
Time TempWeatherWind HumidityBarometerVisibility
12:00 am
Thu, Mar 2
59 °FThundershowers. Passing clouds.9 mph48%29.98 "Hg2 mi
11:30 pm
Wed, Mar 1
55 °FPassing clouds.9 mph55%29.98 "Hg2 mi
11:00 pm55 °FPassing clouds.9 mph55%29.98 "Hg2 mi
10:30 pm63 °FPassing clouds.12 mph42%29.98 "Hg2 mi
10:00 pm63 °FPassing clouds.12 mph42%29.98 "Hg2 mi
9:00 pm63 °FPassing clouds.12 mph42%29.98 "Hg2 mi
8:30 pm64 °FPassing clouds.14 mph40%29.95 "Hg2 mi
8:00 pm64 °FPassing clouds.14 mph40%29.95 "Hg2 mi
7:30 pm64 °FPassing clouds.16 mph37%29.95 "Hg2 mi
7:00 pm64 °FPassing clouds.16 mph37%29.95 "Hg2 mi
6:30 pm66 °FPassing clouds.21 mph35%29.95 "Hg2 mi
6:00 pm66 °FScattered clouds.21 mph35%29.95 "Hg2 mi
5:30 pm68 °FScattered clouds.14 mph33%29.95 "Hg3 mi
5:00 pm68 °FScattered clouds.14 mph33%29.95 "Hg3 mi
4:30 pm72 °FScattered clouds.9 mph29%29.92 "Hg3 mi
4:00 pm72 °FScattered clouds.9 mph29%29.92 "Hg3 mi
3:30 pm72 °FScattered clouds.12 mph36%29.95 "Hg3 mi
3:00 pm72 °FScattered clouds.12 mph36%29.95 "Hg3 mi
2:00 pm72 °FScattered clouds.9 mph36%30.04 "Hg3 mi
1:30 pm70 °FScattered clouds.7 mph40%29.98 "Hg3 mi
1:00 pm70 °FScattered clouds.7 mph40%29.98 "Hg3 mi
12:30 pm68 °FScattered clouds.9 mph40%30.04 "Hg3 mi
12:00 pm68 °FScattered clouds.9 mph40%30.04 "Hg3 mi
11:30 am66 °FScattered clouds.5 mph46%30.04 "Hg2 mi
11:00 am66 °FScattered clouds.5 mph46%30.04 "Hg2 mi
10:30 am63 °FScattered clouds.5 mph52%30.04 "Hg2 mi
10:00 am63 °FPartly sunny.5 mph52%30.04 "Hg2 mi
9:30 am59 °FPartly sunny.5 mph59%30.04 "Hg2 mi
9:00 am59 °FPartly sunny.5 mph59%30.04 "Hg2 mi
8:30 am57 °FPartly sunny.7 mph63%30.04 "Hg2 mi
8:00 am57 °FPartly sunny.7 mph63%30.04 "Hg2 mi
7:30 am55 °FBroken clouds.12 mph67%30.01 "Hg2 mi
7:00 am55 °FBroken clouds.12 mph67%30.01 "Hg2 mi
6:30 am55 °FPartly cloudy.9 mph67%30.01 "Hg2 mi
6:00 am55 °FPartly cloudy.9 mph67%30.01 "Hg2 mi
5:30 am57 °FPartly cloudy.12 mph63%30.01 "Hg2 mi
5:00 am57 °FPartly cloudy.12 mph63%30.01 "Hg2 mi
4:00 am57 °FPartly cloudy.7 mph63%30.01 "Hg2 mi
3:00 am57 °FPartly cloudy.7 mph63%30.04 "Hg2 mi
2:00 am59 °FPartly cloudy.7 mph59%30.04 "Hg2 mi
1:00 am59 °FPartly cloudy.9 mph59%30.04 "Hg2 mi
Weather by CustomWeather, © 2017

See weather overviewHow to use our weather pages